Nantucket, MA

6:25 AM EDT on August 17, 2017 (GMT -0400)
Nantucket Memorial

Weather History for KACK - February, 2012

Change the Weather History Date:

Monday, February 13, 2012

  Actual Average Record
Temperature  
Mean Temperature 29 °F -  
Max Temperature 39 °F 35 °F 53 °F (2008)
Min Temperature 19 °F 22 °F 2 °F (1954)
Degree Days  
Heating Degree Days 36    
Moisture  
Dew Point 20 °F    
Average Humidity 59    
Maximum Humidity 70    
Minimum Humidity 49    
Precipitation  
Precipitation 0.00 in - - ()
Sea Level Pressure  
Sea Level Pressure 29.92 in    
Wind  
Wind Speed 15 mph (West)    
Max Wind Speed 30 mph    
Max Gust Speed 38 mph    
Visibility 10 miles    
Events      
Averages and records for this station are not official NWS values.
T = Trace of Precipitation, MM = Missing Value Source: NWS Daily Summary

Daily Weather History Graph

Daily Weather History Graph

Search for Another Location

Airport or City:

Trip Planner

Search our weather history database for the weather conditions in past years. The results will help you decide how hot, cold, wet, or windy it might be!

Date:

Astronomy

Feb. 13, 2012 Rise Set
Actual Time 6:38 AM EST 5:11 PM EST
Civil Twilight 6:09 AM EST 5:39 PM EST
Nautical Twilight 5:37 AM EST 6:12 PM EST
Astronomical Twilight 5:05 AM EST 6:44 PM EST
Moon No Moon Rise 9:29 AM EST (2/13)
Length of Visible Light 11h 29m
Length of Day
10h 32m
Waning Gibbous, 62% of the Moon is Illuminated
Feb 13
Waning Gibbous
Feb 14
Last Quarter
Feb 21
New
Feb 29
First Quarter
Mar 8
Full

Hourly Weather History & Observations

Time (EST) Temp. Windchill Dew Point Humidity Pressure Visibility Wind Dir Wind Speed Gust Speed Precip Events Conditions
12:53 AM 21.9 °F 9.8 °F 8.1 °F 55% 29.88 in 10.0 mi WNW 12.7 mph - N/A   Scattered Clouds
1:53 AM 21.9 °F 12.5 °F 9.0 °F 58% 29.90 in 10.0 mi WNW 8.1 mph - N/A   Scattered Clouds
2:53 AM 19.9 °F 9.3 °F 7.0 °F 57% 29.90 in 10.0 mi West 9.2 mph - N/A   Clear
3:53 AM 21.0 °F 9.3 °F 8.1 °F 57% 29.92 in 10.0 mi WNW 11.5 mph 20.7 mph N/A   Clear
4:53 AM 21.9 °F 7.8 °F 7.0 °F 53% 29.93 in 10.0 mi WNW 17.3 mph 21.9 mph N/A   Clear
5:53 AM 23.0 °F 13.9 °F 10.9 °F 60% 29.94 in 10.0 mi West 8.1 mph - N/A   Mostly Cloudy
6:53 AM 23.0 °F 18.4 °F 12.9 °F 65% 29.93 in 10.0 mi NNE 3.5 mph - N/A   Overcast
7:53 AM 33.1 °F 20.6 °F 21.0 °F 61% 29.92 in 10.0 mi West 23.0 mph 27.6 mph 0.00 in   Overcast
8:53 AM 35.1 °F 23.0 °F 21.0 °F 57% 29.93 in 10.0 mi WSW 24.2 mph 33.4 mph N/A   Mostly Cloudy
9:53 AM 37.9 °F 26.3 °F 21.9 °F 53% 29.92 in 10.0 mi WSW 26.5 mph 34.5 mph N/A   Clear
10:53 AM 39.0 °F 28.0 °F 21.0 °F 49% 29.91 in 10.0 mi West 25.3 mph 38.0 mph N/A   Partly Cloudy
11:53 AM 37.9 °F 26.8 °F 21.9 °F 53% 29.89 in 10.0 mi West 24.2 mph 33.4 mph N/A   Partly Cloudy
12:53 PM 39.0 °F 27.2 °F 23.0 °F 53% 29.87 in 10.0 mi WSW 29.9 mph 35.7 mph N/A   Partly Cloudy
1:53 PM 39.0 °F 29.3 °F 23.0 °F 53% 29.87 in 10.0 mi West 19.6 mph 32.2 mph N/A   Partly Cloudy
2:53 PM 37.9 °F 27.1 °F 23.0 °F 55% 29.87 in 10.0 mi WSW 23.0 mph 32.2 mph N/A   Clear
3:53 PM 37.9 °F 27.3 °F 23.0 °F 55% 29.88 in 10.0 mi WSW 21.9 mph 31.1 mph N/A   Clear
4:53 PM 37.9 °F 28.5 °F 24.1 °F 57% 29.89 in 10.0 mi WSW 17.3 mph 26.5 mph N/A   Clear
5:53 PM 37.9 °F 28.2 °F 23.0 °F 55% 29.92 in 10.0 mi West 18.4 mph - N/A   Clear
6:53 PM 37.9 °F 29.2 °F 24.1 °F 57% 29.95 in 10.0 mi West 15.0 mph - N/A   Clear
7:53 PM 39.0 °F 30.3 °F 30.0 °F 70% 29.96 in 10.0 mi WSW 16.1 mph - N/A   Clear
8:53 PM 39.9 °F 31.8 °F 30.0 °F 68% 29.99 in 10.0 mi WSW 15.0 mph - N/A   Clear
9:53 PM 39.0 °F 31.4 °F 30.0 °F 70% 29.99 in 10.0 mi WSW 12.7 mph - N/A   Clear
10:53 PM 39.0 °F 31.4 °F 30.0 °F 70% 30.01 in 10.0 mi WSW 12.7 mph - N/A   Clear
11:53 PM 37.9 °F 30.9 °F 28.9 °F 70% 30.01 in 10.0 mi West 10.4 mph - N/A   Clear